Location: Dana
(41.8364°N, 106.7042°W)
Time: 14:16:04
(UTC+00:00)

Transit 2A - Pass Details

Date: 19 May 2026
Orbit: 595 x 948 km, 66.7° (Epoch: 8 June)

Event Time Altitude Azimuth Distance (km) Brightness Sun altitude
Rises 06:38:04 0° 331° (NNW) 3,151 10.2 -28.1°
Reaches altitude 10° 06:40:32 10° 333° (NNW) 2,170 9.2 -28.2°
Enters shadow 06:44:34 57° 356° (N) 779 6.2 -28.2°
Maximum altitude 06:45:25 74° 58° (ENE) 684 - -28.2°
Drops below altitude 10° 06:49:52 10° 144° (SE) 1,984 - -28.3°
Sets 06:52:03 0° 146° (SSE) 2,858 - -28.3°
